This demonstration page uses our WeatherBlox Daily Observations layout. Learn more.

Left ArrowRight Arrow

Hourly Observations for October 24, 2018

Temp ( °F °C ) Dew Point ( °F °C ) Humidity (%) Winds ( mph kmh ) Pressure ( in mb ) Visibility ( mi km ) Precip ( " mm )
12:57 am 00:57 Clear 45 7.2 33 0.6 63 63 SE 6 9 30.26 1025 10 16 0.00 0.00
1:57 am 01:57 Clear 44 6.7 33 0.6 65 65 ESE 5 7 30.26 1025 10 16 0.00 0.00
2:57 am 02:57 Cloudy 45 7.2 33 0.6 63 63 SE 5 7 30.25 1024 10 16 0.00 0.00
3:57 am 03:57 Mostly Cloudy 46 7.8 33 0.6 61 61 SE 8 13 30.23 1024 10 16 0.00 0.00
4:57 am 04:57 Cloudy 46 7.8 33 0.6 61 61 SE 10 17 30.22 1023 10 16 0.00 0.00
5:57 am 05:57 Cloudy 44 6.7 33 0.6 65 65 SE 7 11 30.22 1024 10 16 0.00 0.00
6:57 am 06:57 Mostly Cloudy 42 5.6 33 0.6 71 71 SSE 7 11 30.23 1024 10 16 0.00 0.00
7:57 am 07:57 Partly Cloudy 42 5.6 34 1.1 73 73 SE 8 13 30.23 1024 10 16 0.00 0.00
8:57 am 08:57 Mostly Cloudy 44 6.7 34 1.1 68 68 SSE 12 19 30.23 1024 10 16 0.00 0.00
9:57 am 09:57 Sunny 47 8.3 35 1.7 63 63 SSE 13 20 30.22 1023 10 16 0.00 0.00
10:57 am 10:57 Sunny 51 10.6 36 2.2 56 56 SSE 14 22 30.21 1023 10 16 0.00 0.00
11:57 am 11:57 Mostly Cloudy 55 12.8 38 3.3 53 53 SSE 16 26 30.20 1023 10 16 0.00 0.00
12:57 pm 12:57 Cloudy 56 13.3 40 4.4 55 55 SSE 14 22 30.18 1022 10 16 0.00 0.00
1:57 pm 13:57 Cloudy 59 15 42 5.6 54 54 S 12 19 30.14 1021 10 16 0.00 0.00
2:57 pm 14:57 Mostly Cloudy 63 17.2 44 6.7 50 50 S 17 28 30.11 1020 10 16 0.00 0.00
3:57 pm 15:57 Cloudy 62 16.7 44 6.7 52 52 S 20 31 30.09 1019 10 16 0.00 0.00
4:57 pm 16:57 Mostly Cloudy 59 15 44 6.7 58 58 S 17 28 30.09 1019 10 16 0.00 0.00
5:57 pm 17:57 Cloudy 58 14.4 45 7.2 62 62 SSE 10 17 30.09 1019 10 16 0.00 0.00
6:57 pm 18:57 Partly Cloudy 55 12.8 45 7.2 69 69 SSE 10 17 30.10 1019 10 16 0.00 0.00
7:57 pm 19:57 Cloudy 54 12.2 45 7.2 72 72 SSE 9 15 30.10 1019 10 16 0.00 0.00
8:57 pm 20:57 Cloudy with Light Rain 53 11.7 46 7.8 77 77 S 13 20 30.11 1020 10 16 0.00 0.03
9:57 pm 21:57 Cloudy with Light Rain 49 9.4 45 7.2 86 86 SW 12 19 30.11 1020 10 16 0.04 1.02
10:57 pm 22:57 Cloudy with Light Rain 47 8.3 45 7.2 93 93 SSW 12 19 30.11 1020 10 16 0.10 2.54
11:57 pm 23:57 Cloudy with Light Rain 47 8.3 45 7.2 93 93 SW 10 17 30.10 1019 10 16 0.09 2.29

Powered by AerisWeather